Temp
15 15 15 15 15 15 15 15 14 14 14 14 14 14 13 13 13 13 13 13 13 13 13 13 13 13 13 13 13 13 13 13 13 13 13 13 13 13 13 13 12 12 12 12 12 12 12 12 12 12 12 12 12 12 11 11 11 11 11 11 11 11 11 11 11 11 11 10 10
14 14 14 14 14 14 14 14 14 14 14 14 13 13 13 13 12 12 12 12 12 12 12 13 13 13 13 13 13 13 13 13 13 13 13 13 13 12 12 12 12 12 12 12 12 12 12 12 12 12 12 12 11 11 11 11 11 11 11 11 11 11 11 11 10 10 10 10 10
14 14 14 14 14 14 14 14 13 13 13 13 13 13 12 12 12 12 12 12 12 12 12 12 12 12 12 12 12 12 13 13 13 12 12 12 12 12 12 12 12 12 12 12 12 12 12 12 12 12 12 11 11 11 11 11 11 11 11 11 11 11 10 10 10 10 10 10 10
13 13 13 13 14 13 13 13 13 13 13 13 12 12 12 12 12 12 12 12 12 12 12 12 12 12 12 12 12 12 12 12 12 12 12 12 12 12 12 12 12 12 12 12 12 12 12 12 12 12 11 11 11 11 11 11 11 10 10 10 10 10 10 10 10 10 10 10 10
12 12 13 13 13 13 13 13 12 12 12 12 12 12 12 11 11 11 11 12 12 12 12 12 12 12 12 12 12 12 12 12 12 12 12 12 12 12 12 11 12 12 12 12 12 12 12 12 12 11 11 11 11 11 11 11 11 10 10 10 10 10 10 10 10 10 10 10 10
12 12 12 12 12 12 12 12 12 12 12 12 12 12 12 11 11 11 11 11 11 12 12 12 12 12 12 12 12 12 12 12 12 12 12 12 11 11 11 11 12 12 12 12 12 12 12 12 11 11 11 11 11 11 11 10 10 10 10 10 10 10 10 10 10 10 10 10 10
11 11 11 11 11 11 11 11 11 11 11 11 11 11 11 11 11 11 11 11 11 11 11 11 11 12 12 12 12 12 12 12 12 12 12 11 11 11 11 11 11 11 11 11 11 11 11 11 11 11 11 11 10 10 10 10 10 10 10 10 10 10 10 10 9 9 9 9 9
10 11 11 11 11 11 11 11 11 11 11 11 11 11 11 11 11 11 11 11 11 11 11 11 11 11 11 11 11 12 12 12 12 11 11 11 10 11 11 11 11 11 11 11 11 11 11 11 10 10 10 10 10 10 10 10 10 10 10 10 10 10 9 9 9 9 9 9 9
10 10 10 10 10 10 10 10 10 10 11 11 11 11 11 11 11 11 11 11 11 11 11 11 11 11 11 11 11 11 11 11 11 11 11 11 11 11 11 11 11 11 11 11 11 10 10 10 10 10 10 10 10 10 9 9 9 9 9 9 9 9 9 9 9 9 9 9 8
10 10 10 10 10 10 10 10 10 10 10 10 10 10 11 11 11 11 11 11 11 11 11 11 11 11 11 11 11 11 11 11 11 11 11 11 11 11 11 11 11 11 10 10 10 10 10 10 10 10 10 10 9 9 9 9 9 9 9 9 9 9 9 9 9 9 8 8 8
10 10 10 10 10 10 10 10 10 10 10 10 10 10 10 10 10 11 11 11 11 11 11 11 11 11 10 10 11 11 11 11 11 10 10 11 11 11 11 10 10 10 10 10 10 10 10 10 10 10 10 10 9 9 9 9 9 9 9 9 9 9 9 9 8 8 8 8 8
9 10 10 10 10 10 10 10 10 10 10 10 10 10 10 10 10 10 10 10 10 10 10 10 10 10 10 10 10 10 10 10 10 10 10 10 10 10 10 10 10 10 10 10 10 10 10 10 10 10 10 10 10 10 9 9 9 9 9 9 9 9 8 8 8 8 8 8 8
9 9 9 10 10 10 10 10 10 10 10 10 10 10 10 10 10 10 10 10 10 10 10 10 10 10 10 10 10 10 10 10 10 10 10 10 10 10 10 10 10 10 10 10 10 10 10 10 10 10 10 9 9 9 9 9 9 9 8 8 8 8 8 8 8 8 8 8 8
9 9 9 9 9 9 9 9 10 10 10 10 10 10 10 10 10 10 9 9 9 9 9 9 9 9 9 9 9 9 9 10 10 10 9 9 9 9 9 10 10 10 10 10 10 10 10 10 9 9 9 9 9 9 9 9 8 8 8 8 8 8 8 8 8 8 8 8 7
8 8 8 9 9 9 9 9 9 9 9 9 9 9 9 9 9 9 9 9 9 9 9 9 9 9 9 9 9 9 9 9 9 9 9 9 9 9 9 9 9 9 9 9 9 9 9 9 9 9 9 9 9 8 8 8 8 8 8 8 8 8 8 8 8 7 7 7 7
8 8 8 8 8 8 8 8 8 8 8 8 8 9 9 9 9 9 8 8 8 8 8 8 9 9 9 9 9 9 9 9 9 9 9 9 9 9 9 9 9 9 9 9 9 9 9 9 9 8 8 8 8 8 8 8 8 8 8 8 8 8 7 7 7 7 7 7 7
7 7 7 7 8 8 8 8 8 8 8 8 8 8 8 8 8 8 8 8 8 8 8 8 8 8 8 9 9 9 9 9 9 9 9 9 9 9 9 9 9 9 9 9 9 8 8 8 8 8 8 8 8 7 7 7 7 7 7 7 7 7 7 7 7 7 6 6 6
7 7 7 7 7 7 7 7 7 7 7 7 8 8 8 8 8 8 8 8 8 8 8 8 8 8 8 8 8 8 8 9 9 9 9 9 9 9 9 9 9 8 8 8 8 8 8 8 7 7 7 7 7 7 7 7 7 7 7 7 7 7 7 6 6 6 6 6 6
6 6 7 7 7 7 7 7 7 7 7 7 7 7 7 7 7 8 8 8 8 8 8 8 8 8 8 8 8 8 8 8 8 8 8 8 8 8 8 8 8 8 8 7 7 7 7 7 7 7 7 7 7 7 7 7 7 7 7 6 6 6 6 6 6 6 6 6 5
6 6 6 6 6 6 6 7 7 7 7 7 7 7 7 7 7 7 7 7 7 7 7 7 7 7 7 7 7 7 8 8 8 8 8 8 7 7 7 7 7 7 7 7 7 7 7 6 7 7 7 7 7 6 6 6 6 6 6 6 6 6 6 6 6 5 5 5 5
6 6 6 6 6 6 6 6 6 6 7 7 7 7 7 7 7 7 7 7 7 7 7 7 7 7 7 7 7 7 7 7 7 7 7 7 7 6 6 6 6 6 6 6 6 6 6 6 6 6 6 6 6 6 6 6 6 6 6 6 6 6 5 5 5 5 5 5 4
6 6 6 6 6 6 6 6 6 6 6 7 7 7 7 7 7 7 7 7 7 7 6 6 6 6 6 6 6 6 6 6 6 6 6 6 6 6 5 5 5 5 5 6 6 6 6 6 6 6 6 6 6 6 6 6 6 6 5 5 5 5 5 5 5 4 4 4 4
6 6 6 6 6 6 6 6 6 6 6 6 6 6 6 7 7 7 7 6 6 6 6 6 6 6 6 6 6 6 6 6 6 5 5 5 5 5 5 5 5 5 5 5 6 6 6 6 6 5 5 5 5 5 5 5 5 5 5 5 5 5 5 4 4 4 4 4 3
6 6 6 6 6 6 6 6 6 6 6 6 6 6 6 6 6 6 6 6 6 6 6 6 6 6 6 5 5 5 5 5 5 5 5 5 5 5 5 5 5 5 5 5 5 5 5 5 5 5 5 5 5 5 5 5 5 5 5 5 4 4 4 4 4 4 3 3 3
5 5 5 5 5 5 5 6 6 6 6 6 6 6 6 6 6 6 6 6 6 6 6 6 6 6 5 5 5 5 5 5 5 5 4 5 5 5 5 5 5 5 5 5 5 5 5 5 5 5 5 5 5 5 5 5 5 4 4 4 4 4 4 3 3 3 3 3 2
5 5 5 6 6 6 6 6 6 6 6 6 6 6 6 6 6 6 6 6 5 5 5 5 5 5 5 5 5 5 5 5 5 5 5 5 5 5 5 5 5 5 5 5 5 5 4 4 4 4 4 4 4 4 4 4 4 4 4 4 4 3 3 3 3 3 2 2 2
5 5 6 5 5 6 6 6 6 6 6 5 5 5 5 5 5 5 5 5 5 5 5 5 5 5 5 5 5 5 5 5 5 5 5 5 5 5 5 5 5 5 5 4 4 4 4 4 4 4 4 4 4 4 4 4 4 4 3 3 3 3 3 2 2 2 2 2 2
5 5 5 5 5 6 6 6 6 5 5 5 5 5 5 5 5 5 5 5 5 5 5 5 5 5 5 5 5 5 5 5 5 5 5 5 5 5 5 5 4 4 4 4 4 4 4 4 4 4 4 4 4 4 4 3 3 3 3 3 2 2 2 2 2 2 2 2 2
5 5 5 5 6 6 6 5 5 5 5 5 5 5 5 5 4 4 4 4 4 5 5 5 5 5 5 5 5 5 5 4 4 4 4 4 4 4 4 4 4 4 3 3 3 3 3 3 3 3 3 3 3 3 3 3 2 2 2 2 2 2 2 2 2 2 2 1 1
4 5 5 5 6 6 5 5 5 5 5 4 4 4 4 4 4 4 4 4 4 5 5 5 5 5 5 5 5 4 4 4 4 4 4 4 4 4 3 3 3 3 3 3 3 3 3 3 3 3 3 3 3 2 2 2 2 2 2 2 2 2 2 2 2 1 1 1 1
4 4 5 5 5 5 5 5 4 4 4 4 4 4 4 4 4 4 4 4 4 4 4 4 5 5 4 4 4 4 4 4 4 3 3 3 3 3 3 3 3 3 3 3 3 3 3 2 2 2 2 2 2 2 2 2 2 2 2 2 2 2 2 2 1 1 1 1 0
4 4 4 4 5 4 4 4 4 4 3 3 3 4 4 4 4 4 4 4 4 4 4 4 4 4 4 4 3 3 3 3 3 3 3 3 3 3 3 2 3 3 3 2 2 2 2 2 2 2 2 2 2 2 2 2 2 2 2 2 2 2 1 1 1 1 1 0 0
4 4 4 4 4 4 3 3 3 3 3 3 3 3 4 4 4 4 4 4 4 4 4 4 3 3 3 3 3 3 3 2 2 2 2 2 2 2 2 2 2 2 2 2 2 2 2 2 2 2 2 2 2 2 2 2 2 2 2 2 1 1 1 1 1 1 0 0 -0
3 3 3 3 3 3 2 2 2 2 3 3 3 3 4 4 4 4 3 3 3 3 3 3 3 3 3 2 2 2 2 2 2 2 2 2 2 2 2 2 2 2 2 2 2 2 2 2 2 2 2 2 2 2 2 2 1 1 1 1 1 1 1 1 0 0 -0 -0 -0
3 3 3 3 2 2 2 2 2 2 3 3 3 3 3 3 3 3 3 3 3 2 2 2 2 2 2 2 2 2 2 2 2 2 2 2 2 2 2 2 2 2 2 2 2 2 2 2 2 2 2 2 1 1 1 1 1 1 1 1 1 0 0 0 -0 -0 -1 -1 -1
2 2 2 2 2 2 2 2 2 3 3 3 3 3 3 3 2 2 2 2 2 2 2 2 2 2 2 2 2 2 2 2 2 2 2 2 2 2 2 2 2 2 2 2 2 2 2 2 2 1 1 1 1 1 1 1 1 1 1 0 0 -0 -0 -0 -1 -1 -1 -1 -1
1 1 2 2 1 1 2 2 2 3 3 3 3 3 2 2 2 2 2 1 1 1 1 2 2 2 2 2 2 2 2 2 2 2 2 2 2 2 3 3 3 3 2 2 2 2 1 1 1 1 1 1 1 1 1 1 1 0 0 -0 -0 -1 -1 -1 -1 -1 -2 -2 -2
1 1 1 1 1 1 2 2 2 2 2 2 2 2 1 1 1 1 1 1 1 1 1 1 1 1 1 1 2 2 2 2 2 2 2 2 3 3 3 3 2 2 2 2 1 1 1 1 1 1 1 1 0 0 0 0 -0 -0 -1 -1 -1 -1 -1 -2 -2 -2 -2 -2 -2
0 0 1 1 1 1 2 2 2 1 1 1 1 1 1 1 1 1 1 1 1 1 1 1 1 1 1 1 2 2 2 2 2 2 3 3 3 3 2 2 2 2 2 1 1 1 1 0 0 0 -0 -0 -0 -1 -1 -1 -1 -1 -1 -2 -2 -2 -2 -2 -2 -2 -2 -2 -2
0 0 1 1 1 1 1 1 1 1 1 1 1 1 1 1 1 1 1 1 1 1 1 1 1 2 2 2 2 2 2 2 2 2 3 3 2 2 2 2 2 1 1 1 1 0 -0 -0 -0 -1 -1 -1 -1 -1 -1 -1 -2 -2 -2 -2 -2 -2 -2 -3 -3 -3 -3 -3 -3
0 0 0 0 0 0 1 1 1 0 0 1 0 0 0 1 1 1 1 1 1 1 1 1 2 2 2 2 2 2 2 2 2 2 2 2 2 2 2 2 1 1 1 0 0 -0 -1 -1 -1 -1 -1 -2 -2 -2 -2 -2 -2 -2 -2 -2 -2 -2 -3 -3 -3 -3 -3 -4 -4
Height
1511 1511 1512 1512 1512 1512 1512 1512 1512 1512 1512 1512 1512 1512 1513 1513 1513 1513 1513 1513 1513 1513 1514 1514 1514 1515 1515 1516 1516 1517 1517 1517 1517 1518 1518 1518 1519 1519 1520 1520 1520 1520 1520 1521 1521 1522 1522 1522 1522 1523 1523 1523 1523 1523 1523 1523 1524 1524 1524 1524 1524 1524 1524 1524 1524 1524 1524 1524 1523
1511 1511 1511 1511 1511 1511 1511 1512 1512 1512 1512 1512 1512 1512 1512 1512 1512 1512 1512 1512 1513 1513 1513 1514 1514 1514 1515 1515 1515 1516 1516 1516 1517 1517 1517 1517 1517 1517 1517 1518 1518 1519 1519 1520 1520 1521 1521 1521 1521 1521 1521 1522 1522 1522 1522 1522 1522 1522 1522 1522 1522 1522 1522 1522 1522 1522 1522 1522 1522
1510 1510 1510 1510 1510 1510 1511 1511 1511 1511 1511 1511 1511 1511 1511 1512 1512 1512 1512 1512 1512 1513 1513 1513 1513 1514 1514 1514 1515 1515 1515 1515 1516 1516 1516 1516 1516 1516 1517 1517 1517 1518 1518 1519 1519 1519 1519 1520 1520 1520 1520 1520 1520 1520 1520 1520 1521 1521 1521 1521 1521 1521 1521 1521 1521 1521 1521 1520 1520
1509 1509 1509 1509 1509 1510 1510 1510 1510 1510 1510 1510 1511 1511 1511 1511 1511 1512 1512 1512 1512 1512 1512 1513 1513 1513 1513 1514 1514 1514 1514 1514 1515 1515 1515 1515 1515 1516 1516 1516 1516 1517 1517 1517 1518 1518 1518 1518 1518 1518 1518 1518 1519 1519 1519 1519 1519 1519 1519 1520 1520 1520 1520 1520 1519 1519 1518 1518 1518
1508 1509 1509 1509 1509 1509 1509 1509 1509 1509 1510 1510 1510 1510 1510 1511 1511 1511 1511 1511 1512 1512 1512 1512 1512 1512 1513 1513 1513 1513 1513 1514 1514 1514 1514 1514 1515 1515 1515 1515 1515 1516 1516 1516 1516 1516 1517 1517 1517 1517 1517 1517 1517 1517 1517 1517 1517 1518 1518 1518 1518 1518 1518 1517 1517 1517 1517 1516 1516
1508 1508 1508 1508 1508 1508 1508 1509 1509 1509 1509 1509 1509 1510 1510 1510 1510 1511 1511 1511 1511 1511 1511 1511 1512 1512 1512 1512 1512 1512 1512 1513 1513 1513 1513 1513 1513 1513 1514 1514 1515 1515 1515 1515 1515 1515 1515 1516 1516 1516 1516 1516 1516 1516 1516 1516 1517 1517 1517 1517 1516 1516 1516 1516 1515 1515 1515 1515 1514
1507 1507 1507 1507 1508 1508 1508 1508 1508 1508 1508 1509 1509 1509 1509 1510 1510 1510 1510 1510 1510 1510 1510 1511 1511 1511 1511 1511 1511 1512 1512 1512 1512 1512 1512 1512 1512 1512 1513 1513 1513 1514 1514 1514 1514 1514 1514 1514 1514 1514 1515 1515 1515 1515 1515 1515 1515 1515 1515 1515 1515 1515 1514 1514 1514 1514 1513 1513 1513
1507 1507 1507 1507 1507 1507 1507 1507 1508 1508 1508 1508 1508 1508 1509 1509 1509 1509 1510 1510 1510 1510 1510 1510 1510 1510 1510 1510 1510 1510 1511 1511 1511 1511 1511 1511 1512 1512 1512 1512 1512 1512 1512 1512 1513 1513 1513 1513 1513 1513 1513 1513 1514 1514 1514 1514 1514 1514 1514 1513 1513 1513 1512 1512 1512 1512 1512 1512 1511
1506 1506 1507 1507 1507 1507 1507 1507 1507 1507 1507 1507 1508 1508 1508 1508 1509 1509 1509 1509 1509 1509 1509 1509 1509 1509 1509 1509 1509 1509 1509 1509 1510 1510 1510 1510 1511 1511 1511 1511 1511 1511 1511 1511 1512 1512 1512 1512 1512 1512 1512 1512 1512 1512 1512 1512 1512 1512 1512 1512 1511 1511 1511 1511 1511 1510 1510 1510 1510
1506 1506 1506 1506 1506 1506 1507 1507 1507 1507 1507 1507 1507 1507 1507 1508 1508 1508 1508 1508 1508 1508 1508 1508 1508 1508 1508 1508 1508 1508 1509 1509 1509 1509 1509 1509 1510 1510 1510 1510 1510 1510 1510 1510 1510 1510 1510 1511 1511 1511 1511 1511 1511 1511 1511 1511 1511 1510 1510 1510 1510 1509 1509 1509 1509 1509 1508 1508 1508
1505 1505 1505 1505 1505 1506 1506 1506 1506 1506 1506 1507 1507 1507 1507 1507 1507 1507 1507 1507 1507 1507 1507 1507 1507 1507 1507 1507 1507 1508 1508 1508 1508 1508 1508 1508 1508 1508 1508 1508 1508 1508 1508 1508 1509 1509 1509 1509 1509 1509 1509 1509 1509 1509 1509 1509 1508 1508 1508 1508 1508 1507 1507 1507 1507 1507 1507 1507 1507
1504 1504 1504 1504 1504 1505 1505 1505 1505 1505 1506 1506 1506 1506 1506 1506 1506 1506 1507 1507 1507 1507 1507 1507 1507 1507 1507 1507 1507 1507 1507 1507 1507 1507 1507 1507 1507 1507 1507 1507 1507 1507 1507 1507 1507 1507 1507 1507 1507 1507 1507 1507 1507 1507 1507 1507 1507 1507 1506 1506 1506 1506 1506 1506 1506 1506 1505 1505 1505
1503 1503 1503 1503 1503 1503 1504 1504 1504 1504 1504 1505 1505 1505 1505 1505 1505 1505 1505 1505 1505 1505 1505 1505 1505 1505 1505 1505 1506 1506 1506 1506 1506 1506 1505 1505 1505 1505 1506 1506 1506 1506 1506 1506 1506 1506 1506 1506 1506 1506 1506 1506 1506 1505 1505 1505 1505 1505 1505 1505 1505 1505 1505 1504 1504 1504 1504 1504 1503
1502 1502 1502 1502 1502 1502 1502 1503 1503 1503 1503 1503 1503 1503 1504 1504 1504 1504 1504 1504 1504 1504 1504 1504 1504 1504 1504 1504 1504 1504 1504 1504 1504 1504 1504 1504 1504 1504 1504 1504 1504 1504 1504 1504 1504 1504 1504 1504 1504 1504 1504 1504 1504 1504 1504 1504 1504 1504 1503 1503 1503 1503 1503 1503 1503 1503 1502 1502 1502
1501 1501 1501 1501 1501 1501 1502 1502 1502 1502 1502 1502 1502 1502 1502 1502 1502 1503 1503 1503 1503 1503 1502 1502 1503 1503 1503 1503 1503 1503 1503 1503 1503 1503 1503 1503 1503 1503 1503 1503 1503 1503 1503 1503 1503 1503 1503 1503 1503 1503 1503 1503 1502 1502 1502 1502 1502 1502 1502 1502 1502 1502 1502 1502 1502 1501 1501 1501 1500
1499 1500 1500 1500 1500 1500 1500 1500 1500 1501 1501 1501 1501 1501 1501 1501 1501 1501 1501 1501 1501 1501 1501 1501 1501 1501 1501 1501 1501 1501 1501 1501 1501 1502 1502 1502 1501 1501 1501 1501 1501 1501 1501 1502 1502 1501 1501 1501 1501 1501 1501 1501 1501 1501 1501 1501 1501 1501 1501 1501 1501 1501 1501 1501 1500 1500 1500 1499 1499
1498 1498 1499 1499 1499 1499 1499 1499 1499 1499 1499 1499 1499 1499 1500 1500 1500 1500 1500 1500 1500 1500 1500 1500 1500 1500 1500 1500 1500 1500 1500 1500 1500 1500 1500 1500 1500 1500 1500 1500 1500 1500 1500 1500 1500 1500 1500 1500 1500 1500 1500 1500 1500 1500 1500 1500 1500 1500 1500 1500 1500 1500 1500 1499 1499 1499 1498 1498 1497
1497 1497 1497 1497 1498 1498 1498 1498 1498 1498 1498 1498 1498 1498 1498 1498 1498 1498 1498 1498 1498 1499 1499 1498 1498 1498 1498 1498 1498 1498 1498 1498 1499 1499 1499 1499 1499 1499 1499 1499 1499 1499 1499 1499 1499 1499 1499 1499 1499 1499 1499 1499 1499 1499 1499 1499 1499 1499 1499 1499 1499 1498 1498 1498 1498 1497 1497 1497 1497
1496 1496 1496 1496 1497 1497 1497 1497 1497 1497 1497 1497 1497 1497 1497 1497 1497 1497 1497 1497 1497 1497 1497 1497 1497 1497 1497 1497 1497 1497 1497 1497 1497 1497 1497 1497 1497 1497 1497 1497 1497 1497 1497 1497 1497 1498 1498 1498 1498 1498 1498 1498 1498 1498 1498 1498 1498 1498 1498 1498 1497 1497 1497 1497 1497 1496 1496 1496 1496
1495 1495 1495 1495 1495 1495 1495 1495 1495 1495 1495 1495 1496 1496 1496 1496 1496 1496 1496 1496 1496 1496 1496 1496 1496 1496 1496 1496 1496 1496 1496 1496 1496 1496 1497 1496 1497 1497 1496 1496 1496 1496 1496 1497 1497 1497 1497 1497 1497 1497 1497 1497 1497 1497 1497 1497 1497 1497 1497 1497 1497 1496 1496 1496 1496 1495 1495 1495 1495
1493 1493 1494 1494 1494 1494 1494 1494 1494 1494 1494 1494 1494 1494 1494 1494 1494 1495 1495 1495 1495 1495 1495 1495 1495 1495 1495 1495 1495 1495 1495 1495 1495 1495 1495 1495 1495 1495 1495 1495 1495 1495 1495 1496 1496 1496 1496 1496 1496 1496 1496 1496 1497 1497 1497 1497 1496 1496 1496 1496 1495 1495 1495 1495 1495 1495 1494 1494 1494
1492 1492 1492 1492 1493 1493 1493 1493 1493 1493 1493 1493 1493 1493 1493 1493 1493 1493 1494 1494 1494 1494 1494 1494 1494 1494 1494 1494 1494 1494 1494 1494 1494 1494 1494 1494 1494 1494 1494 1494 1494 1494 1495 1495 1495 1495 1495 1495 1495 1495 1496 1496 1496 1496 1496 1496 1495 1495 1495 1495 1495 1494 1494 1494 1494 1494 1494 1494 1493
1491 1491 1491 1492 1492 1492 1492 1492 1492 1492 1492 1492 1492 1492 1492 1492 1492 1492 1492 1493 1493 1493 1493 1493 1493 1493 1493 1493 1493 1493 1493 1493 1493 1493 1493 1493 1493 1493 1494 1494 1494 1494 1494 1494 1494 1494 1494 1495 1495 1495 1495 1495 1495 1495 1495 1494 1494 1494 1494 1494 1494 1494 1494 1494 1494 1493 1493 1493 1493
1490 1490 1490 1490 1490 1490 1490 1490 1490 1490 1491 1491 1491 1491 1491 1491 1491 1492 1492 1492 1492 1492 1492 1492 1492 1492 1492 1492 1492 1492 1492 1492 1492 1492 1492 1493 1493 1493 1493 1493 1493 1493 1493 1493 1494 1494 1494 1494 1494 1494 1494 1494 1494 1494 1494 1494 1494 1494 1494 1494 1494 1494 1493 1493 1493 1493 1493 1493 1493
1488 1489 1489 1489 1489 1489 1489 1489 1489 1489 1489 1490 1490 1490 1490 1490 1490 1491 1491 1491 1491 1491 1491 1491 1491 1491 1492 1492 1492 1492 1492 1492 1492 1492 1492 1492 1492 1492 1492 1492 1492 1493 1493 1493 1493 1493 1493 1493 1493 1493 1493 1493 1493 1493 1493 1493 1493 1493 1493 1493 1493 1493 1493 1493 1493 1493 1493 1493 1493
1487 1487 1487 1487 1487 1487 1488 1488 1488 1488 1488 1488 1489 1489 1489 1489 1489 1490 1490 1490 1490 1490 1490 1490 1490 1490 1491 1491 1491 1491 1491 1491 1491 1491 1492 1492 1492 1492 1492 1492 1492 1492 1492 1493 1493 1493 1493 1493 1493 1492 1492 1492 1493 1493 1493 1493 1493 1493 1493 1493 1493 1493 1493 1493 1493 1493 1493 1493 1492
1486 1486 1486 1486 1487 1487 1487 1487 1487 1487 1487 1488 1488 1488 1488 1488 1489 1489 1489 1489 1489 1489 1489 1489 1490 1490 1490 1490 1490 1490 1491 1491 1491 1491 1491 1491 1491 1491 1492 1492 1492 1492 1492 1492 1492 1492 1492 1492 1492 1492 1492 1492 1493 1493 1493 1493 1493 1493 1493 1493 1493 1493 1493 1493 1493 1493 1493 1492 1492
1485 1485 1485 1485 1485 1485 1486 1486 1486 1486 1487 1487 1487 1487 1487 1488 1488 1488 1488 1488 1488 1488 1488 1489 1489 1489 1489 1490 1490 1490 1490 1490 1490 1491 1491 1491 1491 1491 1491 1491 1492 1492 1492 1492 1492 1492 1492 1492 1492 1492 1493 1493 1493 1493 1493 1493 1493 1493 1493 1493 1493 1493 1493 1492 1492 1492 1492 1492 1492
1484 1484 1484 1484 1484 1485 1485 1485 1485 1486 1486 1486 1487 1487 1487 1487 1487 1487 1487 1487 1488 1488 1488 1488 1488 1489 1489 1489 1489 1489 1490 1490 1490 1490 1490 1491 1491 1491 1491 1491 1491 1491 1492 1492 1492 1492 1492 1492 1492 1493 1493 1493 1493 1493 1493 1493 1493 1493 1493 1493 1493 1492 1492 1492 1492 1492 1492 1492 1491
1483 1483 1483 1483 1483 1484 1484 1484 1484 1485 1485 1486 1486 1486 1486 1486 1487 1487 1487 1487 1487 1487 1488 1488 1488 1488 1488 1489 1489 1489 1489 1490 1490 1490 1490 1490 1491 1491 1491 1491 1491 1491 1492 1492 1492 1492 1492 1493 1493 1493 1493 1493 1493 1493 1493 1493 1493 1493 1493 1492 1492 1492 1492 1492 1492 1492 1492 1491 1491
1482 1482 1482 1482 1483 1483 1483 1483 1484 1484 1485 1485 1485 1485 1486 1486 1486 1486 1487 1487 1487 1487 1487 1487 1488 1488 1488 1488 1489 1489 1489 1489 1490 1490 1490 1490 1491 1491 1491 1491 1491 1492 1492 1492 1492 1492 1493 1493 1493 1493 1493 1493 1493 1493 1493 1493 1492 1492 1492 1492 1492 1492 1492 1492 1492 1491 1491 1490 1490
1481 1482 1482 1482 1482 1482 1482 1483 1483 1484 1484 1484 1484 1485 1485 1485 1486 1486 1486 1486 1487 1487 1487 1487 1487 1488 1488 1488 1488 1489 1489 1489 1490 1490 1490 1490 1491 1491 1491 1491 1492 1492 1492 1492 1493 1493 1493 1493 1493 1493 1493 1493 1493 1493 1492 1492 1492 1492 1492 1492 1492 1492 1492 1491 1491 1490 1490 1490 1489
1480 1481 1481 1481 1481 1482 1482 1482 1483 1483 1483 1484 1484 1484 1485 1485 1485 1486 1486 1486 1486 1487 1487 1487 1487 1487 1488 1488 1488 1489 1489 1489 1490 1490 1490 1491 1491 1491 1492 1492 1492 1492 1492 1493 1493 1493 1493 1493 1493 1493 1493 1493 1493 1492 1492 1492 1492 1492 1492 1492 1491 1491 1491 1491 1490 1490 1490 1489 1489
1480 1480 1480 1480 1481 1481 1482 1482 1482 1482 1483 1483 1483 1484 1484 1485 1485 1485 1485 1486 1486 1486 1487 1487 1487 1487 1488 1488 1488 1489 1489 1490 1490 1490 1491 1491 1491 1492 1492 1492 1492 1492 1493 1493 1493 1493 1493 1493 1493 1493 1493 1492 1492 1492 1492 1492 1492 1492 1491 1491 1491 1490 1490 1490 1490 1489 1489 1489 1488
1479 1479 1479 1480 1480 1480 1481 1481 1482 1482 1482 1483 1483 1483 1484 1484 1485 1485 1485 1485 1486 1486 1487 1487 1487 1487 1488 1488 1489 1489 1489 1490 1490 1491 1491 1491 1492 1492 1492 1492 1492 1493 1493 1493 1493 1493 1493 1493 1493 1492 1492 1492 1492 1492 1492 1492 1491 1491 1491 1491 1490 1490 1490 1489 1489 1489 1489 1488 1488
1478 1478 1479 1479 1479 1480 1480 1481 1481 1482 1482 1482 1483 1483 1484 1484 1484 1485 1485 1485 1486 1486 1487 1487 1487 1488 1488 1488 1489 1489 1490 1490 1491 1491 1491 1492 1492 1492 1492 1492 1492 1493 1493 1493 1493 1493 1493 1492 1492 1492 1492 1492 1492 1492 1491 1491 1491 1491 1491 1490 1490 1490 1489 1489 1489 1489 1488 1488 1488
1478 1478 1478 1479 1479 1479 1480 1480 1481 1481 1482 1482 1482 1483 1483 1484 1484 1485 1485 1486 1486 1487 1487 1487 1488 1488 1488 1489 1489 1490 1490 1491 1491 1491 1492 1492 1492 1492 1492 1493 1493 1493 1493 1493 1493 1492 1492 1492 1492 1492 1492 1492 1491 1491 1491 1491 1491 1490 1490 1490 1490 1489 1489 1489 1489 1488 1488 1488 1487
1477 1477 1478 1478 1479 1479 1479 1480 1480 1481 1481 1482 1482 1483 1483 1484 1484 1485 1485 1486 1486 1487 1487 1488 1488 1489 1489 1489 1490 1490 1491 1491 1491 1492 1492 1492 1492 1492 1493 1493 1493 1493 1493 1492 1492 1492 1492 1492 1492 1492 1491 1491 1491 1491 1491 1491 1490 1490 1490 1490 1490 1489 1489 1489 1488 1488 1487 1487 1487
1477 1477 1477 1478 1478 1479 1479 1480 1480 1481 1481 1482 1482 1483 1483 1484 1484 1485 1485 1486 1487 1487 1488 1488 1489 1489 1489 1490 1490 1491 1491 1491 1492 1492 1492 1492 1492 1493 1493 1493 1493 1492 1492 1492 1492 1492 1492 1492 1491 1491 1491 1491 1491 1491 1491 1490 1490 1490 1490 1490 1489 1489 1489 1488 1488 1487 1487 1487 1487
1476 1477 1477 1477 1478 1478 1479 1479 1480 1481 1481 1482 1482 1483 1483 1484 1484 1485 1486 1486 1487 1487 1488 1489 1489 1489 1490 1490 1491 1491 1491 1492 1492 1492 1492 1492 1493 1493 1493 1492 1492 1492 1492 1492 1492 1491 1491 1491 1491 1491 1491 1491 1491 1491 1490 1490 1490 1490 1490 1489 1489 1489 1488 1488 1487 1487 1487 1486 1486
1476 1477 1477 1477 1478 1478 1479 1479 1480 1481 1481 1482 1482 1483 1484 1484 1485 1486 1486 1487 1487 1488 1488 1489 1489 1490 1490 1490 1491 1491 1492 1492 1492 1492 1492 1492 1492 1492 1492 1492 1492 1491 1491 1491 1491 1491 1491 1491 1491 1491 1491 1491 1490 1490 1490 1490 1490 1489 1489 1489 1489 1488 1488 1488 1487 1487 1487 1486 1486
Wind_Speed
17 18 19 20 20 21 21 21 21 21 21 21 20 19 18 17 16 15 15 14 14 13 14 14 15 16 17 18 18 19 19 20 20 21 21 22 22 23 23 21 18 15 14 15 16 17 17 17 17 16 16 16 17 17 17 17 17 16 16 17 17 18 19 19 20 21 22 23 24
17 17 18 19 20 20 21 21 21 20 20 19 18 17 16 15 14 14 13 13 12 12 13 13 13 14 14 14 15 16 17 18 18 19 20 20 20 19 18 16 15 14 15 16 16 17 17 18 17 17 17 17 17 17 18 18 18 17 17 18 18 19 19 19 20 21 22 22 22
16 16 17 18 19 19 18 18 19 19 18 17 16 16 15 14 14 13 13 13 12 12 12 13 13 13 13 13 13 14 14 15 16 17 17 17 17 17 16 15 14 15 16 17 17 18 18 18 17 17 17 18 18 18 19 19 19 18 18 18 18 18 19 19 20 21 21 22 22
15 15 16 17 18 18 17 17 17 17 16 15 15 15 14 14 14 14 13 13 13 13 13 13 13 13 13 13 13 13 14 14 15 15 16 17 17 17 17 16 15 16 17 18 18 19 19 18 18 18 18 18 19 19 20 20 20 19 19 19 19 19 20 21 22 22 22 22 23
14 14 15 16 16 16 16 16 16 15 15 14 14 14 14 14 14 14 14 14 13 13 13 13 13 13 14 14 14 14 14 15 15 16 17 18 18 18 16 15 15 16 17 18 18 19 19 18 18 18 19 19 20 20 20 20 20 19 19 19 20 20 20 21 21 22 22 23 24
14 14 14 14 14 14 14 14 14 14 14 14 14 13 13 13 14 14 14 14 14 14 13 13 13 14 14 15 15 15 15 16 17 18 18 18 17 15 14 14 15 16 17 18 18 18 18 18 18 18 19 19 19 19 19 19 19 19 19 19 19 20 21 21 22 23 23 24 23
14 14 13 13 13 13 13 12 12 12 13 13 13 13 13 13 13 13 13 14 14 14 14 14 14 14 14 15 15 16 16 17 19 19 19 16 14 13 13 15 17 18 18 17 17 17 17 17 17 18 18 18 18 18 18 18 18 18 18 19 20 21 22 23 24 24 23 23 22
14 13 13 12 12 12 11 11 11 11 11 11 12 12 11 11 12 12 13 13 14 14 14 14 14 14 15 15 15 16 17 17 18 18 17 15 14 14 15 16 18 18 18 17 17 17 17 17 17 17 17 18 17 18 18 18 18 19 20 21 23 23 24 24 24 23 22 21 20
14 13 12 12 11 11 11 11 10 10 10 10 10 10 10 10 10 11 11 12 12 13 13 14 14 14 14 14 15 15 15 15 15 15 15 14 15 15 16 17 18 18 17 18 18 18 18 18 18 18 18 18 18 18 19 20 20 21 22 23 24 24 24 23 22 20 19 18 18
14 14 13 12 12 12 11 11 11 11 10 10 10 10 10 9 9 10 10 10 11 11 12 12 13 13 13 14 14 14 14 14 14 14 14 15 15 16 17 17 17 17 17 18 18 19 19 19 20 20 20 20 20 21 21 22 22 23 23 23 23 22 21 20 18 17 17 17 17
15 14 14 13 13 13 13 13 12 12 12 12 11 11 11 10 10 10 10 10 11 11 11 12 12 12 13 13 13 14 14 14 14 14 15 15 16 16 17 17 17 17 18 18 19 19 20 20 21 21 21 21 21 21 22 22 22 22 21 21 20 19 17 16 15 15 15 15 16
16 15 15 15 15 15 14 14 14 14 14 14 13 13 13 12 12 12 12 12 12 12 12 12 12 13 13 13 14 14 14 14 15 15 16 16 16 17 17 17 17 18 18 19 20 20 20 20 21 21 21 21 20 20 20 20 20 19 19 18 16 15 14 13 14 14 15 15 15
16 16 16 16 16 16 16 16 16 15 15 15 15 15 14 14 14 13 13 13 13 13 13 14 14 14 14 14 15 15 15 16 16 16 17 17 17 18 18 18 18 19 19 20 20 20 21 21 21 20 20 19 19 19 18 18 17 16 15 14 13 13 13 13 14 14 15 15 15
16 16 16 16 16 16 16 16 16 16 16 16 16 15 15 15 15 15 14 14 14 14 15 15 15 15 15 16 16 16 17 17 17 18 18 18 18 19 19 19 20 20 20 20 21 21 20 20 20 19 19 18 17 17 16 15 14 13 13 12 13 13 13 14 14 15 15 15 16
16 16 16 16 16 16 16 16 16 16 16 16 16 16 15 15 15 15 15 15 15 15 16 16 16 16 17 17 17 18 18 19 19 19 19 19 19 20 20 20 20 20 20 20 20 20 19 19 18 18 17 16 15 14 14 13 12 12 12 12 13 13 14 14 15 15 15 15 15
15 15 15 15 15 15 15 15 15 15 15 16 16 16 16 16 16 16 16 16 16 16 16 17 17 18 18 19 19 19 20 20 20 20 20 20 20 21 21 20 20 20 20 19 18 18 17 17 16 15 14 14 13 12 12 12 11 12 12 13 13 14 14 15 15 15 15 15 15
15 15 15 15 15 15 15 15 15 15 15 16 16 16 16 16 16 16 17 17 17 17 17 18 18 19 19 20 20 20 20 20 21 21 21 20 20 20 20 20 19 19 18 17 17 16 15 14 14 13 13 12 12 11 11 11 12 12 13 14 14 14 14 14 14 14 15 15 15
15 15 15 15 15 15 15 15 15 15 16 16 16 17 17 17 17 17 18 18 18 18 18 19 19 19 20 20 20 20 20 20 20 20 19 19 19 19 18 18 17 16 15 14 14 13 12 12 12 12 11 11 11 11 12 12 12 13 13 13 14 13 13 13 14 14 14 15 15
15 15 15 15 15 15 15 16 16 16 17 17 17 17 17 17 18 18 18 18 18 18 18 19 19 19 19 19 19 18 18 18 17 17 17 16 16 15 14 13 13 12 12 11 11 11 11 11 11 11 11 11 11 12 12 12 13 13 13 13 13 13 13 13 13 14 14 14 14
16 16 16 16 16 16 16 16 17 17 17 17 17 17 17 18 18 18 18 18 18 18 18 18 17 17 16 15 15 15 15 15 14 14 13 12 11 10 10 10 9 10 10 10 10 10 10 11 11 11 11 11 12 12 12 12 12 12 11 12 12 12 12 12 12 13 13 13 12
16 16 16 16 16 16 17 17 17 17 17 17 17 17 17 17 17 17 17 17 16 16 15 14 13 12 11 11 11 11 11 11 10 10 9 8 8 8 8 8 8 9 9 9 9 10 10 10 10 10 11 11 11 11 11 10 10 10 10 10 11 11 11 11 11 11 11 10 10
17 17 17 16 16 17 17 17 17 17 17 16 16 16 16 17 16 16 16 15 14 13 12 10 9 8 8 8 8 8 8 7 7 7 7 7 7 7 7 7 7 7 8 8 8 8 8 8 9 9 9 9 9 9 9 9 9 9 9 9 10 10 10 10 9 9 9 8 7
17 17 17 17 16 16 16 16 16 16 16 15 15 15 15 15 15 14 13 12 11 10 9 8 7 7 6 6 6 6 6 5 6 6 6 6 6 6 6 6 6 6 6 6 6 6 6 6 7 7 7 7 7 7 7 7 7 8 8 8 8 8 8 7 7 7 6 6 5
17 17 17 17 16 16 16 16 16 15 15 14 14 14 14 13 12 12 11 10 9 9 8 7 7 6 6 5 5 5 5 5 5 5 5 5 5 5 4 4 4 4 5 5 5 5 5 5 6 6 6 6 6 6 6 6 6 6 7 7 6 6 6 5 5 4 4 3 3
16 16 16 16 16 16 15 15 15 14 14 13 13 12 11 11 10 10 9 9 8 8 7 6 6 5 5 4 4 4 5 5 4 4 4 4 4 4 4 4 4 4 4 4 4 4 4 4 4 4 4 4 4 5 5 5 5 5 5 5 4 4 3 3 2 2 2 2 2
16 16 16 15 15 15 15 14 14 14 13 12 11 10 10 9 9 9 8 8 7 7 6 6 5 5 4 4 4 4 4 4 3 3 3 3 3 3 3 3 3 3 3 3 3 3 3 3 3 3 3 3 3 3 3 3 3 3 3 2 2 2 1 1 1 1 1 1 2
14 14 14 14 14 14 14 14 14 13 12 12 10 10 9 9 8 7 7 6 6 6 6 5 5 4 4 4 3 3 3 3 3 3 3 3 3 3 3 3 3 3 2 2 2 2 1 1 1 1 1 1 2 2 2 2 1 1 1 1 1 0 0 0 1 1 1 2 3
13 13 13 12 12 13 13 13 13 13 12 11 10 9 8 7 6 6 5 5 5 5 5 4 4 4 4 3 3 3 2 2 2 2 2 2 3 2 2 2 2 2 1 1 1 1 1 1 1 1 1 1 1 1 1 2 1 1 1 1 1 1 1 2 2 3 3 4 4
11 11 11 11 11 11 12 12 12 12 11 10 9 8 7 6 5 5 4 4 4 4 4 3 4 4 4 3 3 3 2 2 2 2 2 2 2 1 1 1 1 2 2 2 3 3 3 3 3 3 3 2 2 2 2 2 1 1 1 1 1 2 3 3 4 5 5 6 7
10 10 10 10 10 10 10 11 11 11 10 8 7 6 5 5 5 4 4 4 3 3 3 3 3 3 3 3 2 2 2 2 1 1 1 1 1 1 1 2 3 3 4 4 5 5 4 4 4 3 3 3 2 2 1 1 1 1 2 2 3 3 4 5 5 6 6 7 8
9 9 9 9 9 9 10 10 10 9 8 7 6 5 5 5 5 4 4 3 3 3 3 3 3 3 3 2 2 2 2 2 2 2 3 3 3 3 3 4 4 5 5 6 5 5 5 4 4 3 2 2 1 1 1 1 2 3 3 4 4 4 5 5 6 6 7 7 8
9 9 9 8 8 9 9 9 8 7 6 5 5 5 5 5 5 4 4 3 3 3 3 3 3 3 3 3 3 3 4 4 5 5 5 5 5 5 5 5 5 6 6 6 5 5 4 3 2 2 1 1 1 2 2 2 3 4 4 4 5 5 5 6 6 7 7 8 8
9 9 8 8 8 8 8 8 7 6 6 5 5 5 5 5 5 4 4 3 3 3 3 3 4 4 4 4 5 5 6 6 7 7 7 6 6 6 6 5 6 5 5 4 4 3 2 2 1 0 1 1 2 2 3 3 4 4 5 5 5 6 6 7 7 7 7 8 8
9 8 8 7 7 8 8 8 7 6 6 6 6 6 5 5 4 4 4 3 4 4 5 5 5 6 6 6 7 7 8 8 8 8 8 7 7 6 5 5 5 4 4 3 2 2 1 0 0 1 1 2 2 3 3 3 4 5 5 6 6 7 7 7 7 8 8 8 8
8 7 7 7 8 8 8 8 7 7 7 7 6 6 5 5 5 5 5 5 5 6 7 7 7 7 7 8 8 9 9 9 9 9 8 8 7 6 5 4 3 3 2 1 1 0 0 1 1 1 2 2 3 3 4 4 5 5 6 6 7 7 7 7 8 8 8 8 8
8 7 7 7 8 8 8 8 7 7 7 7 7 6 6 6 6 6 7 7 7 7 8 8 8 8 9 9 10 10 9 9 9 8 8 7 6 5 4 3 2 2 1 1 0 0 0 1 1 2 2 3 3 4 4 5 5 6 6 6 7 7 7 7 7 7 8 8 8
8 8 8 8 8 9 8 8 8 8 8 7 7 7 7 8 8 9 9 9 9 9 9 9 9 10 10 10 10 10 9 8 8 7 6 5 5 4 3 3 2 1 1 1 1 1 1 2 2 3 3 4 4 4 5 5 6 6 6 6 7 7 7 7 7 7 7 7 7
9 9 9 9 9 9 9 8 8 8 8 8 8 8 9 10 10 11 11 11 10 10 10 10 10 10 10 10 9 9 8 8 7 6 5 5 4 3 3 2 2 1 1 1 2 2 3 3 3 4 4 4 4 5 5 6 6 6 6 6 6 6 6 7 7 7 7 7 7
10 10 10 10 10 9 9 8 8 9 9 9 10 11 11 12 12 12 13 12 12 11 10 11 11 11 10 10 9 8 7 7 6 5 5 4 4 3 3 2 2 2 2 2 3 3 4 4 4 4 4 4 4 5 5 5 5 5 5 6 6 6 6 6 6 7 7 7 7
11 11 11 10 10 10 9 9 9 9 10 11 12 13 13 13 13 13 13 13 13 12 11 11 11 10 10 9 8 7 6 6 5 5 4 3 3 2 2 2 3 3 3 3 4 4 4 4 4 4 4 4 4 4 4 4 4 5 5 5 5 5 5 6 6 6 7 7 7
12 12 11 11 11 10 10 10 10 11 12 13 14 14 14 14 14 14 14 14 13 12 12 11 10 9 8 8 7 6 6 5 5 4 3 3 2 2 3 4 4 4 4 4 4 4 4 3 3 3 3 4 4 4 5 5 5 5 5 5 5 5 5 5 6 6 6 7 7
Wind_Direction
261 260 259 258 258 257 257 258 259 260 261 262 263 264 265 266 267 268 271 272 271 268 265 263 260 258 257 255 254 253 252 252 251 251 250 250 251 252 254 257 260 264 268 270 270 269 268 269 271 271 270 269 270 270 271 273 272 271 269 268 268 268 269 269 273 280 285 286 285
261 260 259 258 257 257 257 257 258 258 259 260 262 262 263 263 263 264 265 266 265 263 260 257 254 253 253 252 251 250 249 249 249 249 249 249 249 249 251 255 260 264 267 267 266 267 268 271 271 269 268 268 269 271 273 274 274 272 270 269 268 268 269 272 278 282 283 281 282
262 261 260 259 258 257 257 257 257 258 258 259 260 260 260 259 259 259 259 260 260 259 256 253 251 249 248 247 246 245 245 246 248 251 252 253 254 255 255 255 257 260 262 263 264 265 268 270 269 268 268 269 271 273 275 276 276 275 273 272 272 272 274 277 279 280 280 282 288
263 262 261 261 260 259 258 258 258 258 259 259 260 259 259 259 258 256 256 256 256 256 254 253 251 249 247 246 245 245 246 248 251 253 256 257 258 258 256 253 254 256 259 260 263 265 268 269 269 268 269 271 273 275 276 277 277 277 277 276 276 276 276 277 278 281 285 292 298
262 262 261 261 261 261 261 261 261 260 260 260 260 260 260 259 257 256 254 254 253 254 254 253 252 251 250 249 248 248 249 251 253 256 256 256 255 253 251 249 254 257 259 260 262 265 267 268 268 268 269 272 274 276 277 278 278 279 278 277 276 276 276 279 283 289 295 299 300
259 259 260 260 261 262 262 263 262 261 260 261 260 260 260 259 257 256 254 252 252 252 252 253 253 253 253 253 253 253 254 255 257 258 257 254 250 247 248 253 258 260 261 261 263 264 265 266 266 268 270 272 274 275 276 276 277 277 276 275 276 279 283 287 292 296 298 300 299
255 255 256 257 259 260 261 262 261 260 259 259 259 259 259 258 257 255 253 252 251 251 252 253 253 254 255 255 256 256 257 258 259 259 259 254 247 245 250 258 262 263 262 262 262 264 264 265 266 268 270 271 272 273 273 274 274 275 277 280 283 286 290 293 296 297 299 299 298
251 252 253 254 256 257 258 258 258 257 256 256 256 257 258 258 257 255 254 253 252 252 252 253 254 255 255 255 255 256 257 257 259 260 259 257 252 252 256 261 263 264 263 262 262 263 264 265 265 266 267 268 269 270 272 274 276 279 282 285 288 290 293 295 296 297 298 298 297
247 248 250 252 253 254 254 254 253 252 252 252 254 256 258 258 258 257 256 255 254 254 254 254 255 255 255 255 255 256 256 257 257 258 257 256 255 257 260 262 262 262 262 262 262 262 262 262 263 263 265 266 269 272 275 278 281 283 285 287 289 291 293 295 296 297 297 298 297
245 247 249 250 251 252 252 252 252 252 252 252 254 257 259 260 261 260 259 258 257 257 256 255 255 255 254 254 255 255 255 255 255 255 254 254 256 257 259 260 261 261 261 261 262 262 263 264 265 267 269 272 275 277 280 282 284 286 287 289 291 293 295 296 297 298 298 299 298
246 248 249 251 252 253 253 253 254 254 255 257 259 261 263 264 264 263 262 261 260 259 258 257 256 255 254 253 253 253 254 253 253 253 254 255 256 257 258 259 261 261 262 263 264 266 268 269 272 274 277 279 281 283 284 286 287 289 290 292 294 295 297 298 298 298 298 298 297
250 251 252 253 254 255 256 257 257 258 260 261 263 264 265 266 265 264 263 262 260 259 257 257 255 255 254 254 253 253 254 254 255 255 256 257 259 260 261 262 264 265 266 267 269 270 272 274 277 279 281 283 284 286 287 288 290 291 293 294 295 296 295 296 295 294 293 293 292
255 256 256 257 257 258 259 260 260 261 262 263 264 265 265 265 264 264 262 261 259 258 256 255 255 254 254 254 254 254 255 256 257 258 260 261 263 265 266 267 268 269 270 271 272 273 275 277 278 280 282 283 285 287 288 290 291 292 293 292 292 291 290 289 289 288 288 287 287
260 260 260 260 260 260 261 261 262 262 263 263 263 264 264 264 264 263 261 260 258 257 257 256 255 254 254 254 254 255 256 257 259 260 263 265 267 269 270 270 271 272 273 273 274 275 276 278 280 281 282 283 285 286 288 289 290 290 288 287 286 286 286 285 285 284 284 285 285
262 261 261 261 261 261 261 261 261 262 262 262 262 262 262 262 261 261 261 259 258 258 258 258 258 257 257 257 257 258 259 260 261 262 264 266 268 269 270 271 271 272 272 274 274 275 277 278 279 280 281 282 283 285 285 286 286 284 283 283 283 283 283 283 282 282 283 284 286
260 260 260 260 260 260 260 260 260 261 261 261 261 260 260 260 260 260 260 259 259 259 260 260 261 261 261 262 262 263 263 264 264 265 266 267 268 269 269 270 270 270 271 272 273 273 274 275 275 276 277 279 280 281 282 281 281 281 281 281 281 281 281 280 281 282 283 285 287
258 258 258 258 258 259 259 259 260 260 260 260 260 260 260 260 260 260 260 259 260 261 262 263 263 264 266 266 266 267 268 268 269 269 269 269 269 269 268 268 268 268 268 268 268 269 270 270 271 272 274 274 276 277 278 278 278 279 279 278 278 278 279 280 282 284 285 286 287
255 256 257 257 258 258 259 259 260 260 260 260 260 260 260 261 261 261 262 261 262 263 264 266 267 267 268 269 270 270 270 271 271 270 270 269 268 267 266 266 265 265 264 264 263 264 265 266 268 269 270 271 272 273 274 275 275 275 276 276 277 278 280 282 283 285 286 287 287
253 254 255 256 257 258 258 260 260 260 260 260 260 260 261 261 261 262 263 264 264 266 267 268 269 270 270 271 271 271 270 270 270 269 268 266 265 264 262 262 261 261 260 260 260 261 262 265 266 267 268 269 270 270 271 271 272 273 274 276 278 280 282 283 284 285 286 286 286
251 252 253 254 256 257 258 259 260 260 260 260 260 261 262 262 261 262 263 265 266 267 268 269 270 270 270 270 269 269 268 267 266 264 263 262 260 258 257 256 256 257 258 258 259 260 261 263 264 265 266 266 267 267 267 268 270 272 275 277 280 281 282 283 283 284 284 284 284
249 250 251 252 254 255 257 257 258 259 260 260 261 261 262 262 262 262 262 264 264 265 265 265 265 265 264 264 263 263 263 262 260 256 254 253 251 250 250 251 252 254 255 257 257 258 259 260 262 262 263 264 264 265 266 269 272 275 277 279 280 280 281 281 281 281 281 281 281
248 248 249 251 252 254 255 257 257 258 259 259 260 260 260 261 261 261 260 260 259 257 255 253 252 252 253 254 254 254 253 251 247 244 242 242 242 243 244 246 249 252 254 256 256 256 257 258 259 260 261 262 263 266 268 272 275 277 278 278 278 278 277 277 276 276 276 276 275
247 247 249 250 251 253 254 255 255 256 256 256 257 257 257 257 257 255 253 250 246 242 238 237 238 240 244 246 246 243 238 233 230 230 232 233 236 237 239 241 247 253 256 256 255 255 255 257 258 259 261 263 266 269 271 274 275 276 276 275 273 273 272 271 270 270 270 270 270
247 247 248 249 250 250 251 252 252 252 252 251 251 251 251 250 246 242 237 232 227 224 224 227 230 233 235 236 235 232 228 223 222 225 228 230 234 239 242 245 251 254 255 253 253 254 256 258 260 261 263 265 268 270 271 272 271 270 269 268 267 266 265 264 264 265 267 270 270
246 246 246 246 247 247 247 247 247 246 245 243 242 241 238 233 227 221 216 213 214 216 219 223 225 226 227 228 228 229 228 228 229 233 239 244 244 247 251 254 254 252 251 253 255 258 260 261 261 263 265 266 267 267 266 264 263 262 260 258 256 255 253 253 254 258 268 277 283
243 244 244 244 244 243 243 242 240 238 235 232 228 223 218 213 209 205 203 204 210 216 220 222 223 224 224 228 232 234 236 238 241 249 258 265 265 262 261 261 257 254 256 258 261 262 264 262 261 260 260 260 261 258 255 252 249 246 244 239 239 235 234 232 241 260 285 298 300
242 243 243 242 240 239 237 235 232 228 222 217 211 206 203 202 201 199 200 204 213 219 222 222 223 224 226 230 235 242 248 248 250 255 261 268 274 275 273 267 261 260 259 259 254 249 246 245 243 243 247 247 242 237 227 219 207 199 188 178 162 139 95 20 340 324 309 302 301
241 239 238 235 234 232 231 227 222 216 209 202 198 196 196 197 196 198 203 212 220 224 225 224 224 224 225 230 236 240 245 248 253 257 263 267 273 275 279 274 260 246 234 204 167 150 139 133 126 119 126 140 157 162 159 153 146 136 127 109 71 33 4 347 333 324 314 307 303
234 230 228 226 225 224 221 216 209 202 196 192 191 192 194 195 198 204 211 220 225 227 226 224 222 223 226 230 232 234 236 240 242 250 259 266 268 269 266 239 198 173 152 135 126 118 115 110 109 110 114 122 127 130 131 127 120 104 62 19 359 347 337 329 323 317 313 309 306
224 220 218 217 216 214 209 203 197 191 188 186 187 188 192 197 204 211 215 220 223 226 224 221 221 219 220 221 222 223 221 214 212 206 197 171 137 127 138 147 147 139 130 122 117 115 114 113 115 116 120 123 122 121 112 88 38 2 346 337 329 324 320 317 314 312 312 311 311
216 214 213 213 209 204 199 193 188 183 180 180 183 189 195 201 205 209 214 218 223 224 222 219 216 210 203 199 191 183 173 164 153 139 124 115 110 114 125 132 132 128 124 121 120 120 120 121 122 123 122 118 104 64 18 356 342 332 326 319 316 312 310 309 309 310 312 315 320
213 212 212 208 202 198 193 188 181 176 174 177 184 190 196 201 206 209 214 217 221 222 218 210 197 186 178 170 160 150 143 138 131 125 118 114 113 117 122 126 126 124 123 124 125 126 126 126 125 121 107 53 2 346 338 333 325 320 314 311 311 311 311 312 314 318 320 324 326
212 211 209 204 198 194 191 185 178 173 175 180 186 191 197 203 208 212 212 209 205 197 183 171 163 157 151 146 142 140 137 134 129 124 121 118 117 117 120 123 124 125 127 129 130 130 126 124 112 57 346 332 331 330 327 322 319 316 316 316 318 320 322 324 326 327 328 328 328
211 210 206 200 194 190 188 183 178 175 178 183 187 193 199 204 204 201 193 184 173 163 155 149 146 143 141 139 138 137 137 135 132 128 125 123 121 121 123 126 128 130 130 132 130 127 121 94 331 322 323 327 328 329 327 326 324 324 325 327 328 329 330 331 331 330 329 329 327
210 207 201 194 189 187 185 182 179 178 180 183 187 192 196 196 187 176 165 158 154 150 146 145 143 142 141 139 138 137 137 135 133 130 128 126 125 126 129 132 132 131 131 127 125 123 354 316 318 325 334 338 337 335 333 332 331 331 331 331 332 332 331 331 330 329 327 326 326
208 204 196 188 184 183 183 181 179 178 179 181 185 187 184 176 166 156 150 147 145 145 144 143 143 141 139 137 137 136 135 134 132 130 129 128 129 131 134 133 128 124 118 113 103 15 339 338 344 347 346 344 341 339 336 335 333 332 332 331 332 331 330 330 328 326 325 324 323
204 198 191 183 181 180 180 179 178 175 175 178 178 174 167 160 154 149 144 143 141 141 142 141 140 137 136 136 135 135 133 131 130 129 130 131 133 134 133 128 119 109 94 74 45 17 4 360 354 351 348 345 342 340 338 336 335 333 332 331 330 330 328 327 325 324 323 322 321
197 192 187 181 178 178 178 176 173 172 171 172 167 161 156 154 150 146 143 141 140 141 141 141 139 137 136 135 134 133 132 130 128 129 130 133 133 132 127 120 108 91 66 44 26 18 8 1 356 351 348 346 344 342 341 340 338 336 334 332 330 329 326 325 324 322 321 320 318
190 185 181 178 176 175 175 173 171 169 168 164 159 154 152 150 148 146 143 142 142 143 143 142 141 139 137 135 134 133 131 130 129 129 130 129 129 123 114 101 80 58 42 33 26 17 10 4 360 355 352 351 349 347 345 343 341 338 335 332 329 327 326 325 324 323 322 319 317
182 179 176 175 173 173 173 170 168 166 163 159 154 152 151 150 149 148 146 145 145 145 146 145 144 141 139 136 134 133 132 132 132 131 130 126 120 108 87 68 50 38 32 30 28 21 13 8 4 1 358 355 352 350 349 347 345 342 337 332 329 327 326 325 325 325 323 321 319
176 174 173 171 171 171 171 168 165 161 158 155 152 151 152 152 151 150 149 148 147 147 147 146 145 143 140 138 137 136 135 134 133 131 127 117 100 78 59 47 39 32 29 30 30 25 20 13 11 6 3 358 355 354 353 353 351 347 342 337 332 329 327 325 324 323 322 321 318